FW4175 Weather Reports


Display with metric or nautical units.
time (UTC)temp
F
wind
direction
speed
MPH
gust
MPH
rain 1hr
in
rain 24hr
in
rain mn
in
humidity
%
barometer
mb
20260831094442 73 177 3.0 6.0 0.00 0.00 0.00 89 1015.9
20260831093938 73 143 3.0 4.0 0.00 0.00 0.00 89 1015.8
20260831093432 73 155 1.0 5.0 0.00 0.00 0.00 89 1015.9
20260831092929 73 166 4.0 10.0 0.00 0.00 0.00 89 1016.2
20260831092424 73 134 3.0 7.0 0.00 0.00 0.00 90 1015.9
20260831091914 73 152 4.0 7.0 0.00 0.00 0.00 90 1016.0
20260831091409 73 153 4.0 9.0 0.00 0.00 0.00 91 1015.8
20260831090904 73 111 1.0 10.0 0.00 0.00 0.00 91 1016.0
20260831090400 73 128 2.0 6.0 0.00 0.00 0.00 92 1015.8
20260831085856 73 129 3.0 5.0 0.00 0.00 0.00 91 1016.1
20260831085350 73 137 3.0 5.0 0.00 0.00 0.00 92 1015.8
20260831084844 73 150 0.0 7.0 0.00 0.00 0.00 92 1015.6
20260831084341 72 150 2.0 3.0 0.00 0.00 0.00 93 1016.1
20260831083837 72 113 1.0 4.0 0.00 0.00 0.00 93 1016.1
20260831083332 72 132 3.0 6.0 0.00 0.00 0.00 93 1016.0
20260831082831 72 131 0.0 5.0 0.00 0.00 0.00 93 1016.2
20260831082326 73 125 0.0 4.0 0.00 0.00 0.00 93 1016.2
20260831081822 73 89 0.0 4.0 0.00 0.00 0.00 93 1016.4
20260831081317 73 164 2.0 3.0 0.00 0.00 0.00 93 1016.1
20260831080813 73 124 0.0 3.0 0.00 0.00 0.00 93 1016.3
20260831080308 73 138 2.0 3.0 0.00 0.00 0.00 93 1016.3
20260831075803 73 141 4.0 5.0 0.00 0.00 0.00 93 1016.1
20260831075258 72 128 3.0 7.0 0.00 0.00 0.00 94 1016.0
20260831074758 72 146 1.0 2.0 0.00 0.00 0.00 94 1016.6
20260831074252 72 113 0.0 1.0 0.00 0.00 0.00 94 1016.2
20260831073748 72 141 1.0 2.0 0.00 0.00 0.00 94 1016.7
20260831073246 72 150 2.0 3.0 0.00 0.00 0.00 94 1016.8
20260831072742 73 129 0.0 1.0 0.00 0.00 0.00 93 1016.6
20260831072238 73 142 0.0 0.0 0.00 0.00 0.00 92 1016.9
20260831071738 73 205 0.0 2.0 0.00 0.00 0.00 92 1016.6
20260831071232 73 205 0.0 2.0 0.00 0.00 0.00 91 1016.7
20260831070727 73 154 0.0 4.0 0.00 0.00 0.00 91 1016.9
20260831070221 73 171 1.0 2.0 0.00 0.00 0.00 91 1016.7
20260831065720 73 125 1.0 3.0 0.00 0.00 0.00 91 1016.8
20260831065219 74 136 2.0 5.0 0.00 0.00 0.00 91 1016.7
20260831064714 74 155 3.0 5.0 0.00 0.00 0.00 91 1016.8
20260831064209 74 215 0.0 8.0 0.00 0.00 0.00 90 1016.9
20260831063705 74 152 4.0 5.0 0.00 0.00 0.00 90 1016.7
20260831063200 74 128 4.0 6.0 0.00 0.00 0.00 91 1016.6
20260831062654 74 136 2.0 4.0 0.00 0.00 0.00 90 1016.7
20260831062154 74 79 2.0 10.0 0.00 0.00 0.00 91 1016.8
20260831061651 74 123 3.0 5.0 0.00 0.00 0.00 92 1016.9
20260831061148 74 18 1.0 7.0 0.00 0.00 0.00 92 1016.7
20260831060638 74 146 0.0 5.0 0.00 0.00 0.00 92 1016.8
20260831060138 74 134 7.0 8.0 0.00 0.00 0.00 92 1016.8
20260831055637 74 131 1.0 7.0 0.00 0.00 0.00 92 1016.8
20260831055133 74 140 4.0 6.0 0.00 0.00 0.00 92 1016.6
20260831054632 74 143 5.0 6.0 0.00 0.00 0.00 92 1016.9
20260831054132 74 136 0.0 6.0 0.00 0.00 0.00 92 1016.6
20260831053626 74 111 1.0 7.0 0.00 0.00 0.00 93 1017.0
20260831053120 74 162 4.0 6.0 0.00 0.00 0.00 93 1016.8
20260831052619 74 99 2.0 8.0 0.00 0.00 0.00 93 1016.6
20260831052118 73 152 3.0 6.0 0.00 0.00 0.00 94 1016.9
20260831051617 73 93 1.0 5.0 0.00 0.00 0.00 94 1017.0
20260831051115 73 138 5.0 5.0 0.00 0.00 0.00 95 1017.0
20260831050610 73 70 0.0 3.0 0.00 0.00 0.00 95 1016.9
20260831050109 73 109 2.0 7.0 0.00 0.00 0.00 95 1016.8
20260831045608 73 126 3.0 8.0 0.00 0.30 0.30 96 1016.8
20260831045104 73 34 0.0 4.0 0.00 0.30 0.30 96 1016.7
20260831044559 73 138 5.0 7.0 0.00 0.30 0.30 97 1016.4
20260831044054 73 117 4.0 8.0 0.00 0.30 0.30 97 1016.4
20260831043549 73 147 2.0 4.0 0.00 0.30 0.30 98 1016.8
20260831043044 73 114 2.0 4.0 0.00 0.30 0.30 98 1016.9
20260831042544 73 120 1.0 4.0 0.00 0.30 0.30 97 1016.8
20260831042039 73 103 2.0 6.0 0.00 0.30 0.30 97 1016.9
20260831041534 73 106 2.0 4.0 0.00 0.30 0.30 97 1017.2
20260831041033 73 111 2.0 3.0 0.02 0.30 0.30 97 1017.3
20260831040528 73 132 2.0 4.0 0.00 0.30 0.30 97 1017.0
20260831040027 73 135 3.0 8.0 0.00 0.30 0.30 97 1017.0
20260831035520 73 132 7.0 8.0 0.00 0.30 0.30 97 1017.2
20260831035015 72 114 4.0 6.0 0.00 0.30 0.30 98 1017.2
20260831034509 72 140 3.0 9.0 0.00 0.30 0.30 98 1017.3
20260831034004 72 153 3.0 5.0 0.00 0.30 0.30 98 1017.4
20260831033454 72 54 0.0 2.0 0.00 0.30 0.30 97 1017.5
20260831032949 73 357 1.0 2.0 0.00 0.30 0.30 97 1017.4
20260831032449 73 330 0.0 3.0 0.00 0.30 0.30 96 1017.6
20260831031945 73 54 2.0 3.0 0.00 0.30 0.30 95 1017.6
20260831031444 73 352 2.0 3.0 0.00 0.30 0.30 95 1017.8
20260831030944 74 149 0.0 3.0 0.00 0.30 0.30 94 1017.9
20260831030443 73 174 3.0 5.0 0.00 0.30 0.30 94 1017.9
20260831025941 74 171 2.0 4.0 0.00 0.30 0.30 94 1017.8
20260831025440 74 169 0.0 2.0 0.00 0.30 0.30 94 1017.8
20260831024937 74 224 0.0 2.0 0.00 0.30 0.30 94 1017.9
20260831024436 74 269 0.0 4.0 0.00 0.30 0.30 93 1017.8
20260831023931 74 161 4.0 11.0 0.00 0.30 0.30 93 1017.8
20260831023429 74 191 5.0 8.0 0.00 0.30 0.30 93 1017.9
20260831022925 74 154 4.0 11.0 0.00 0.30 0.30 93 1017.3
20260831022423 74 153 5.0 6.0 0.00 0.30 0.30 93 1017.4
20260831021923 74 158 3.0 10.0 0.00 0.30 0.30 93 1017.5
20260831021418 74 199 2.0 6.0 0.00 0.30 0.30 93 1017.6
20260831020914 74 155 4.0 6.0 0.00 0.30 0.30 93 1017.7
20260831020413 74 170 3.0 8.0 0.00 0.30 0.30 93 1017.8
20260831015908 74 169 3.0 7.0 0.00 0.30 0.30 93 1017.7
20260831015404 73 188 4.0 8.0 0.00 0.30 0.30 94 1017.7
20260831014858 73 188 3.0 7.0 0.00 0.30 0.30 94 1017.7
20260831014353 73 229 3.0 5.0 0.00 0.30 0.30 94 1017.5
20260831013849 73 211 3.0 6.0 0.00 0.30 0.30 94 1017.5
20260831013344 73 156 2.0 8.0 0.00 0.30 0.30 94 1017.7
20260831012838 73 148 8.0 8.0 0.00 0.30 0.30 95 1017.5
20260831012334 73 140 4.0 11.0 0.00 0.30 0.30 95 1017.3
20260831011833 73 156 4.0 8.0 0.00 0.30 0.30 95 1017.4
20260831011329 73 189 5.0 7.0 0.00 0.30 0.30 95 1017.7
20260831010824 73 189 4.0 8.0 0.00 0.30 0.30 95 1017.4
20260831010324 73 148 4.0 10.0 0.00 0.30 0.30 94 1017.5
20260831005820 73 178 6.0 10.0 0.00 0.30 0.30 94 1017.4
20260831005315 73 156 4.0 7.0 0.00 0.30 0.30 95 1017.4
20260831004810 73 145 4.0 7.0 0.00 0.30 0.30 96 1016.9
20260831004306 73 161 4.0 7.0 0.00 0.30 0.30 95 1017.0
20260831003802 73 158 4.0 11.0 0.00 0.30 0.30 95 1017.2
20260831003258 73 183 2.0 8.0 0.00 0.30 0.30 95 1017.4
20260831002757 73 191 6.0 13.0 0.00 0.30 0.30 96 1017.4
20260831002256 73 170 7.0 13.0 0.00 0.30 0.30 96 1017.0
20260831001752 73 149 7.0 13.0 0.02 0.30 0.30 97 1017.1
20260831001247 72 155 6.0 8.0 0.02 0.30 0.30 98 1016.8
20260831000744 72 156 3.0 9.0 0.00 0.29 0.29 97 1016.4
20260831000241 72 148 3.0 7.0 0.00 0.29 0.29 98 1016.3
20260830235737 72 174 5.0 6.0 0.00 0.29 0.29 97 1016.7
20260830235232 72 144 4.0 8.0 0.00 0.29 0.29 97 1016.7
20260830234727 72 130 4.0 9.0 0.00 0.29 0.29 97 1016.8
20260830234224 72 128 1.0 8.0 0.00 0.29 0.29 97 1016.8
20260830233719 72 130 1.0 7.0 0.00 0.29 0.29 97 1016.9
20260830233214 72 152 3.0 9.0 0.00 0.29 0.29 96 1016.9
20260830232710 72 164 2.0 7.0 0.00 0.29 0.29 96 1017.4
20260830232205 72 110 1.0 6.0 0.00 0.29 0.29 96 1017.1
20260830231702 73 150 4.0 7.0 0.00 0.29 0.29 95 1017.4
20260830231201 73 155 4.0 9.0 0.00 0.29 0.29 95 1017.4
20260830230656 73 163 4.0 7.0 0.00 0.29 0.29 96 1017.5
20260830230151 72 145 4.0 7.0 0.00 0.29 0.29 96 1017.4
20260830225646 72 157 5.0 6.0 0.02 0.29 0.29 96 1017.4
20260830225140 72 172 4.0 6.0 0.00 0.29 0.29 96 1017.5
20260830224639 72 175 4.0 8.0 0.00 0.29 0.29 96 1017.6
20260830224135 72 142 4.0 7.0 0.02 0.29 0.29 96 1017.5
20260830223632 72 179 5.0 8.0 0.02 0.29 0.29 96 1017.7
20260830223127 73 147 7.0 9.0 0.02 0.29 0.29 95 1017.5
20260830222626 73 139 5.0 9.0 0.05 0.29 0.29 94 1017.5
20260830222122 73 171 4.0 12.0 0.05 0.28 0.28 93 1017.6
20260830221618 74 192 4.0 8.0 0.02 0.28 0.28 92 1017.8
20260830221114 74 146 4.0 9.0 0.00 0.28 0.28 90 1017.7
20260830220609 74 169 8.0 9.0 0.00 0.28 0.28 90 1017.7
20260830215601 74 166 5.0 8.0 0.00 0.28 0.28 90 1017.5
20260830215055 75 166 5.0 9.0 0.00 0.28 0.28 89 1017.6
20260830214550 75 150 4.0 9.0 0.00 0.28 0.28 89 1017.4
20260830214045 75 164 4.0 11.0 0.00 0.28 0.28 90 1017.4
20260830213539 75 177 3.0 8.0 0.00 0.28 0.28 92 1017.3
20260830213030 75 150 5.0 8.0 0.00 0.28 0.28 92 1017.4
20260830212525 75 159 3.0 7.0 0.00 0.28 0.28 93 1017.5
20260830212020 74 159 3.0 6.0 0.00 0.28 0.28 94 1017.3
20260830211515 74 166 4.0 7.0 0.00 0.28 0.28 94 1017.6
20260830211014 74 180 3.0 5.0 0.00 0.28 0.28 95 1017.5
20260830210514 74 143 2.0 7.0 0.00 0.28 0.28 95 1017.5
20260830210009 74 153 3.0 5.0 0.00 0.28 0.28 95 1017.5
20260830205506 74 179 2.0 4.0 0.00 0.28 0.28 94 1017.6
20260830205001 74 188 4.0 5.0 0.00 0.28 0.28 94 1017.5
20260830204500 74 157 2.0 5.0 0.00 0.28 0.28 94 1017.7
20260830203950 73 159 4.0 7.0 0.00 0.28 0.28 95 1018.0
20260830203446 73 143 2.0 7.0 0.00 0.28 0.28 97 1017.9
20260830202945 73 164 1.0 2.0 0.00 0.28 0.28 96 1017.8
20260830202440 73 135 3.0 4.0 0.00 0.28 0.28 96 1017.6
20260830201937 73 141 2.0 2.0 0.00 0.28 0.28 95 1017.8
20260830201435 73 216 0.0 5.0 0.00 0.28 0.28 95 1018.1
20260830200931 73 203 2.0 4.0 0.00 0.28 0.28 95 1018.2
20260830200431 73 237 2.0 3.0 0.00 0.28 0.28 95 1018.1
20260830195925 73 224 1.0 5.0 0.02 0.28 0.28 95 1017.9
20260830195420 73 193 1.0 4.0 0.02 0.27 0.27 95 1017.6
20260830194918 73 173 4.0 5.0 0.00 0.27 0.27 94 1017.8
20260830194413 73 182 2.0 5.0 0.00 0.27 0.27 94 1017.7
20260830193912 73 158 4.0 5.0 0.02 0.27 0.27 95 1017.5
20260830193411 73 161 1.0 7.0 0.02 0.27 0.27 95 1017.4
20260830192907 73 198 2.0 5.0 0.02 0.26 0.26 95 1017.6
20260830192402 72 206 5.0 8.0 0.05 0.26 0.26 96 1017.4
20260830191858 72 238 3.0 5.0 0.17 0.26 0.26 96 1017.4
20260830191357 73 120 2.0 6.0 0.12 0.25 0.25 94 1017.0
20260830190853 73 177 2.0 8.0 0.07 0.23 0.23 93 1017.2
20260830190348 73 161 2.0 3.0 0.07 0.23 0.23 93 1017.0
20260830185846 73 203 6.0 9.0 0.02 0.22 0.22 93 1017.4
20260830185342 73 191 5.0 10.0 0.00 0.22 0.22 92 1016.9
20260830184837 73 158 10.0 11.0 0.00 0.22 0.22 93 1017.2
20260830184336 72 181 4.0 12.0 0.12 0.22 0.22 94 1017.2
20260830183830 73 179 3.0 12.0 0.14 0.21 0.21 93 1017.2
20260830183325 73 198 3.0 9.0 0.21 0.19 0.19 91 1017.2
20260830182821 74 118 3.0 7.0 0.31 0.19 0.19 90 1017.5
20260830182317 76 199 9.0 14.0 0.12 0.16 0.16 84 1017.6
20260830181813 78 195 6.0 10.0 0.00 0.14 0.14 77 1017.6
20260830181308 79 198 7.0 12.0 0.00 0.14 0.14 74 1017.2
20260830180807 79 185 5.0 13.0 0.00 0.14 0.14 74 1016.9
20260830180301 79 152 5.0 12.0 0.00 0.14 0.14 73 1016.9
20260830175755 79 181 8.0 17.0 0.00 0.14 0.14 73 1016.1
20260830175250 79 166 5.0 12.0 0.00 0.14 0.14 75 1016.0
20260830174750 78 172 5.0 9.0 0.00 0.14 0.14 76 1015.8
20260830174246 78 149 12.0 14.0 0.00 0.14 0.14 76 1016.0
20260830173746 78 170 8.0 17.0 0.00 0.14 0.14 75 1016.2
20260830173241 78 160 13.0 13.0 0.00 0.14 0.14 76 1016.2
20260830172738 78 150 6.0 14.0 0.00 0.14 0.14 77 1016.2
20260830172234 78 163 22.0 22.0 0.00 0.14 0.14 75 1016.3
20260830171730 79 183 9.0 18.0 0.00 0.14 0.14 75 1016.2
20260830171224 79 204 7.0 14.0 0.00 0.14 0.14 74 1016.2
20260830170719 79 151 10.0 14.0 0.00 0.14 0.14 75 1016.0
20260830170218 80 143 6.0 15.0 0.00 0.14 0.14 74 1016.1
20260830165717 80 189 9.0 20.0 0.00 0.14 0.14 73 1016.3
20260830165214 81 180 4.0 20.0 0.00 0.14 0.14 72 1015.8
20260830164710 81 166 15.0 20.0 0.00 0.14 0.14 70 1016.2
20260830164206 82 136 5.0 19.0 0.00 0.14 0.14 71 1016.3
20260830163702 82 170 6.0 13.0 0.00 0.14 0.14 72 1016.4
20260830163157 81 175 7.0 14.0 0.00 0.14 0.14 72 1016.3
20260830162652 81 164 10.0 21.0 0.00 0.14 0.14 72 1016.3
20260830162148 80 175 7.0 17.0 0.00 0.14 0.14 74 1016.4
20260830161642 80 144 18.0 19.0 0.00 0.14 0.14 74 1016.4
20260830161137 80 173 17.0 20.0 0.00 0.14 0.14 74 1016.4
20260830160633 80 166 6.0 17.0 0.00 0.14 0.14 76 1016.6
20260830160127 80 197 4.0 15.0 0.00 0.14 0.14 76 1016.7
20260830155624 80 149 8.0 20.0 0.00 0.14 0.14 76 1016.7
20260830155120 79 170 8.0 19.0 0.00 0.14 0.14 77 1016.8
20260830154615 79 140 9.0 13.0 0.00 0.14 0.14 79 1016.6
20260830154111 78 151 11.0 21.0 0.00 0.14 0.14 77 1016.7
20260830153607 78 147 11.0 16.0 0.00 0.14 0.14 79 1016.6
20260830153107 78 160 7.0 18.0 0.00 0.14 0.14 80 1016.3
20260830152606 77 138 7.0 13.0 0.00 0.14 0.14 82 1016.7
20260830152105 76 171 5.0 20.0 0.00 0.14 0.14 83 1016.7
20260830151559 76 158 6.0 15.0 0.00 0.14 0.14 83 1016.8
20260830151054 76 152 6.0 11.0 0.00 0.14 0.14 83 1016.7
20260830150549 76 165 8.0 16.0 0.00 0.14 0.14 83 1016.7
20260830150044 75 162 8.0 13.0 0.00 0.14 0.14 84 1016.8
20260830145543 74 157 7.0 11.0 0.00 0.14 0.14 87 1016.7
20260830145038 74 158 4.0 9.0 0.00 0.14 0.14 88 1016.7
20260830144534 73 142 7.0 14.0 0.00 0.14 0.14 89 1016.7
20260830144030 73 174 5.0 7.0 0.00 0.14 0.14 91 1016.9
20260830143526 72 169 3.0 7.0 0.00 0.14 0.14 93 1016.9
20260830143023 72 185 9.0 11.0 0.00 0.14 0.14 92 1017.0
20260830142519 71 157 6.0 7.0 0.00 0.14 0.14 92 1016.9
20260830142014 71 120 4.0 9.0 0.00 0.14 0.14 93 1017.0
20260830141509 71 141 6.0 9.0 0.00 0.14 0.14 94 1017.1
20260830141004 71 160 3.0 8.0 0.00 0.14 0.14 95 1017.0
20260830140459 70 170 7.0 9.0 0.00 0.14 0.14 95 1017.2
20260830135958 70 146 4.0 8.0 0.00 0.14 0.14 96 1017.0
20260830135454 69 147 4.0 8.0 0.00 0.14 0.14 96 1017.1
20260830134949 69 140 4.0 12.0 0.00 0.14 0.14 97 1017.0
20260830134445 69 153 4.0 9.0 0.00 0.14 0.14 98 1017.1
20260830133940 68 149 4.0 9.0 0.00 0.14 0.14 99 1017.3
20260830133436 68 146 4.0 9.0 0.00 0.14 0.14 99 1017.2
20260830132930 67 155 5.0 8.0 0.00 0.14 0.14 99 1017.4
20260830132427 67 136 3.0 9.0 0.00 0.14 0.14 99 1017.1
20260830131925 67 128 3.0 11.0 0.00 0.14 0.14 99 1017.5
20260830131420 67 152 5.0 9.0 0.00 0.14 0.14 99 1017.3
20260830130914 67 139 5.0 10.0 0.00 0.14 0.14 99 1017.5
20260830130410 67 148 4.0 7.0 0.07 0.14 0.14 99 1017.7
20260830125909 67 142 10.0 10.0 0.28 0.14 0.14 99 1017.7
20260830125405 67 160 5.0 18.0 0.19 0.12 0.12 98 1017.6
20260830124902 68 147 8.0 16.0 0.00 0.09 0.09 97 1017.7
20260830124357 67 150 7.0 13.0 0.05 0.09 0.09 97 1017.9
20260830123854 67 151 4.0 10.0 0.07 0.09 0.09 97 1018.0
20260830123350 67 159 4.0 11.0 0.09 0.08 0.08 97 1017.8
20260830122848 68 142 5.0 13.0 0.12 0.08 0.08 96 1017.8
20260830122343 68 187 6.0 17.0 0.07 0.07 0.07 95 1018.3
20260830121838 68 153 6.0 12.0 0.02 0.06 0.06 95 1018.3
20260830121337 68 130 2.0 6.0 0.00 0.06 0.06 95 1018.2
20260830120832 68 144 1.0 2.0 0.00 0.06 0.06 95 1018.6
20260830120328 68 162 0.0 2.0 0.00 0.06 0.06 95 1018.6
20260830115824 68 296 1.0 3.0 0.02 0.06 0.06 94 1018.4
20260830115320 68 263 1.0 4.0 0.02 0.06 0.06 93 1018.3
20260830114815 69 146 3.0 5.0 0.02 0.05 0.05 93 1018.1
20260830114311 69 176 3.0 6.0 0.05 0.05 0.05 92 1018.2
20260830113801 69 185 4.0 7.0 0.07 0.05 0.05 92 1017.7
20260830113255 70 213 2.0 5.0 0.05 0.04 0.04 89 1018.1
20260830112752 70 163 2.0 7.0 0.02 0.04 0.04 88 1018.0
20260830112247 71 197 11.0 12.0 0.02 0.04 0.04 85 1017.8
20260830111737 71 173 5.0 13.0 0.00 0.03 0.03 83 1017.4
20260830111232 72 174 5.0 11.0 0.00 0.03 0.03 82 1017.5
20260830110732 72 155 11.0 11.0 0.00 0.03 0.03 81 1017.5
20260830110229 72 145 11.0 13.0 0.00 0.03 0.03 80 1017.3
20260830105728 72 144 8.0 9.0 0.00 0.03 0.03 80 1017.3
20260830105224 72 167 9.0 17.0 0.00 0.03 0.03 80 1017.4
20260830104720 72 154 7.0 9.0 0.00 0.03 0.03 81 1017.4
20260830104217 72 128 2.0 5.0 0.00 0.03 0.03 81 1017.3
20260830103716 72 130 0.0 6.0 0.00 0.03 0.03 80 1017.4
20260830103212 72 149 3.0 9.0 0.00 0.03 0.03 80 1017.3
20260830102709 71 157 3.0 5.0 0.00 0.03 0.03 81 1017.5
20260830102206 71 157 3.0 4.0 0.00 0.03 0.03 84 1017.4
20260830101702 72 89 0.0 2.0 0.00 0.03 0.03 81 1017.5
20260830101157 72 272 1.0 6.0 0.00 0.03 0.03 80 1017.6
20260830100651 73 348 2.0 6.0 0.00 0.03 0.03 79 1017.9
20260830100144 73 128 3.0 9.0 0.00 0.03 0.03 79 1017.6
20260830095644 73 153 3.0 13.0 0.00 0.03 0.03 79 1017.1
20260830095141 73 175 4.0 13.0 0.00 0.03 0.03 79 1017.0